Location: Hermaringen
(48.5952°N, 10.2585°E)
Time: 07:45:22
(UTC+00:00)

YAOGAN 1 - Pass Details

Date: 18 November 2025
Orbit: 605 x 607 km, 97.8° (Epoch: 06 December)

Event Time Altitude Azimuth Distance (km) Brightness Sun altitude
Rises 16:42:16 0° 133° (SE) 2,857 5.7 -10.9°
Reaches altitude 10° 16:44:42 10° 121° (ESE) 1,957 4.7 -11.3°
Maximum altitude 16:48:13 26° 65° (ENE) 1,219 3.5 -11.9°
Drops below altitude 10° 16:51:45 10° 9° (N) 1,968 4.9 -12.4°
Sets 16:54:12 0° 357° (N) 2,877 5.9 -12.8°
